Time,TemperatureF,DewpointF,PressureIn,WindDirection,WindDirectionDegrees,WindSpeedMPH,WindSpeedGustMPH,Humidity,HourlyPrecipIn,Conditions,Clouds,dailyrainin,SoftwareType,DateUTC
2013-04-10 00:00:00,66.8,55.1,29.85,SSW,202,0.0,6.0,66,0.00,,,-99.99,WeatherLink 5.6,2013-04-10 04:00:00,
2013-04-10 00:30:00,66.9,55.2,29.85,WSW,247,1.0,12.0,66,0.00,,,-99.99,WeatherLink 5.6,2013-04-10 04:30:00,
2013-04-10 01:00:00,66.2,54.9,29.86,WSW,247,1.0,9.0,67,0.00,,,-99.99,WeatherLink 5.6,2013-04-10 05:00:00,
2013-04-10 01:30:00,65.8,54.1,29.86,SW,225,2.0,10.0,66,0.00,,,-99.99,WeatherLink 5.6,2013-04-10 05:30:00,
2013-04-10 02:00:00,65.6,53.5,29.88,WSW,247,1.0,10.0,65,0.00,,,-99.99,WeatherLink 5.6,2013-04-10 06:00:00,
2013-04-10 02:30:00,65.4,52.9,29.86,WSW,247,1.0,6.0,64,0.00,,,-99.99,WeatherLink 5.6,2013-04-10 06:30:00,
2013-04-10 03:00:00,65.0,52.5,29.86,West,270,0.0,8.0,64,0.00,,,-99.99,WeatherLink 5.6,2013-04-10 07:00:00,
2013-04-10 03:30:00,64.7,52.7,29.85,WSW,247,1.0,9.0,65,0.00,,,-99.99,WeatherLink 5.6,2013-04-10 07:30:00,
2013-04-10 04:00:00,65.3,52.8,29.86,West,270,1.0,7.0,64,0.00,,,-99.99,WeatherLink 5.6,2013-04-10 08:00:00,
2013-04-10 04:30:00,64.1,52.9,29.86,West,270,0.0,3.0,67,0.00,,,-99.99,WeatherLink 5.6,2013-04-10 08:30:00,
2013-04-10 05:00:00,64.3,52.7,29.86,WNW,292,0.0,2.0,66,0.00,,,-99.99,WeatherLink 5.6,2013-04-10 09:00:00,
2013-04-10 05:30:00,63.0,52.7,29.85,South,180,0.0,3.0,69,0.00,,,-99.99,WeatherLink 5.6,2013-04-10 09:30:00,
2013-04-10 06:00:00,63.1,52.8,29.83,South,180,3.0,9.0,69,0.00,,,-99.99,WeatherLink 5.6,2013-04-10 10:00:00,
2013-04-10 06:30:00,62.1,52.6,29.85,South,180,3.0,9.0,71,0.00,,,-99.99,WeatherLink 5.6,2013-04-10 10:30:00,
2013-04-10 07:00:00,61.2,52.5,29.85,South,180,1.0,5.0,73,0.00,,,-99.99,WeatherLink 5.6,2013-04-10 11:00:00,
2013-04-10 07:30:00,61.1,52.7,29.87,South,180,0.0,4.0,74,0.00,,,-99.99,WeatherLink 5.6,2013-04-10 11:30:00,
2013-04-10 08:00:00,62.3,53.2,29.89,SSE,157,0.0,4.0,72,0.00,,,-99.99,WeatherLink 5.6,2013-04-10 12:00:00,
2013-04-10 08:30:00,63.6,53.6,29.88,SSE,157,1.0,9.0,70,0.00,,,-99.99,WeatherLink 5.6,2013-04-10 12:30:00,
2013-04-10 09:00:00,66.1,55.2,29.89,South,180,2.0,8.0,68,0.00,,,-99.99,WeatherLink 5.6,2013-04-10 13:00:00,
2013-04-10 09:30:00,68.0,55.4,29.89,South,180,1.0,9.0,64,0.00,,,-99.99,WeatherLink 5.6,2013-04-10 13:30:00,
2013-04-10 10:00:00,68.9,56.2,29.89,WSW,247,2.0,14.0,64,0.00,,,-99.99,WeatherLink 5.6,2013-04-10 14:00:00,
2013-04-10 10:30:00,69.3,55.7,29.89,WSW,247,2.0,12.0,62,0.00,,,-99.99,WeatherLink 5.6,2013-04-10 14:30:00,
2013-04-10 11:00:00,70.1,57.4,29.89,SSW,202,4.0,13.0,64,0.00,,,-99.99,WeatherLink 5.6,2013-04-10 15:00:00,
2013-04-10 11:30:00,71.8,57.6,29.89,South,180,5.0,14.0,61,0.00,,,-99.99,WeatherLink 5.6,2013-04-10 15:30:00,
2013-04-10 12:00:00,73.3,59.0,29.87,SSW,202,3.0,14.0,61,0.00,,,-99.99,WeatherLink 5.6,2013-04-10 16:00:00,
2013-04-10 12:30:00,74.2,60.3,29.86,South,180,4.0,18.0,62,0.00,,,-99.99,WeatherLink 5.6,2013-04-10 16:30:00,
2013-04-10 13:00:00,74.6,58.4,29.84,South,180,5.0,17.0,57,0.00,,,-99.99,WeatherLink 5.6,2013-04-10 17:00:00,
2013-04-10 13:30:00,74.6,58.4,29.83,South,180,5.0,18.0,57,0.00,,,-99.99,WeatherLink 5.6,2013-04-10 17:30:00,
2013-04-10 14:00:00,76.1,58.8,29.81,South,180,5.0,19.0,55,0.00,,,-99.99,WeatherLink 5.6,2013-04-10 18:00:00,
2013-04-10 14:30:00,76.1,57.7,29.81,South,180,8.0,20.0,53,0.00,,,-99.99,WeatherLink 5.6,2013-04-10 18:30:00,
2013-04-10 15:00:00,76.4,57.5,29.80,South,180,6.0,21.0,52,0.00,,,-99.99,WeatherLink 5.6,2013-04-10 19:00:00,
2013-04-10 15:30:00,77.1,56.5,29.79,South,180,10.0,25.0,49,0.00,,,-99.99,WeatherLink 5.6,2013-04-10 19:30:00,
2013-04-10 16:00:00,77.0,55.2,29.77,South,180,10.0,24.0,47,0.00,,,-99.99,WeatherLink 5.6,2013-04-10 20:00:00,
2013-04-10 16:30:00,78.3,54.6,29.76,South,180,8.0,23.0,44,0.00,,,-99.99,WeatherLink 5.6,2013-04-10 20:30:00,
2013-04-10 17:00:00,78.2,53.9,29.75,SSW,202,6.0,18.0,43,0.00,,,-99.99,WeatherLink 5.6,2013-04-10 21:00:00,
2013-04-10 17:30:00,78.3,52.7,29.73,SW,225,6.0,21.0,41,0.00,,,-99.99,WeatherLink 5.6,2013-04-10 21:30:00,
2013-04-10 18:00:00,78.3,52.7,29.73,SSW,202,4.0,18.0,41,0.00,,,-99.99,WeatherLink 5.6,2013-04-10 22:00:00,
2013-04-10 18:30:00,77.5,51.9,29.74,SW,225,5.0,16.0,41,0.00,,,-99.99,WeatherLink 5.6,2013-04-10 22:30:00,
2013-04-10 19:00:00,76.6,53.1,29.73,SW,225,4.0,17.0,44,0.00,,,-99.99,WeatherLink 5.6,2013-04-10 23:00:00,
2013-04-10 19:30:00,75.7,53.4,29.72,SW,225,2.0,14.0,46,0.00,,,-99.99,WeatherLink 5.6,2013-04-10 23:30:00,
2013-04-10 20:00:00,73.8,52.9,29.72,WSW,247,0.0,7.0,48,0.00,,,-99.99,WeatherLink 5.6,2013-04-11 00:00:00,
2013-04-10 20:30:00,72.8,53.1,29.71,South,180,0.0,3.0,50,0.00,,,-99.99,WeatherLink 5.6,2013-04-11 00:30:00,
2013-04-10 21:00:00,72.1,53.5,29.71,South,180,0.0,4.0,52,0.00,,,-99.99,WeatherLink 5.6,2013-04-11 01:00:00,
2013-04-10 21:30:00,71.3,55.8,29.70,South,180,3.0,9.0,58,0.00,,,-99.99,WeatherLink 5.6,2013-04-11 01:30:00,
2013-04-10 22:00:00,70.8,55.8,29.70,South,180,3.0,8.0,59,0.00,,,-99.99,WeatherLink 5.6,2013-04-11 02:00:00,
2013-04-10 22:30:00,70.3,56.2,29.70,South,180,5.0,13.0,61,0.00,,,-99.99,WeatherLink 5.6,2013-04-11 02:30:00,
2013-04-10 23:00:00,69.5,56.3,29.70,South,180,5.0,11.0,63,0.00,,,-99.99,WeatherLink 5.6,2013-04-11 03:00:00,
2013-04-10 23:30:00,68.8,56.6,29.69,South,180,4.0,10.0,65,0.00,,,-99.99,WeatherLink 5.6,2013-04-11 03:30:00,